STARLINK-32753, 62481

Orbit data source: Space-Track

STARLINK-32753, 62481 is a payload satellite owned by SpaceX/Seattle (US) in LEO that was launched on Tue, 31 Dec 2024 UTC via an FALCON 9 launch vehicle from the Air Force Eastern Test Range (AFETR). Payloads include a variety of satellites, spacecraft, and rockets equipped with specific instruments for various scientific and technological missions. These include communications satellites like Starlink; space stations such as the ISS; scientific satellites like the Hubble; Earth observation satellites from companies like Planet Labs, Umbra, and HawkEye 360; GPS; miniature CubeSats for education and research; and military/defense satellites.

Loading next visibility...
STARLINK-32753 details
Identifier
62481, 2024-254V
Orbit
LEO
Last TLE update8 hours ago
Origin
Flag of USSpaceX/Seattle (US)
ManufacturerSpaceX/Seattle
MissionOperational Commercial Communications
Bus & MotorSTARLINK V2M, Unknown motor
Mass730 kg wet, ~700 kg dry
Launch date (UTC)
2024-12-31 (1 month ago)
Launch vehicle
FALCON 9
Launch site
Air Force Eastern Test Range (AFETR)
Object type
Payload
Rocket body
Debris
Shape & HBRBox + 2 Pan, 29 m
Radar Cross Section33.884 m², Large (>1 m²)

Expand to show TLE details & history

TLE from 8 hours ago
0 STARLINK-32753
1 62481U 24254V   25035.91668981 -.00084433  00000-0 -20342-2 0  9998
2 62481  43.0002 105.8886 0001552 255.7944  73.5367 15.40731736  6775
Epoch: 2025-02-04T22:00Z
Definitive object data (Epoch: 2025-02-04T22:00:01.999Z)
Latitude-20.50398°
Longitude-22.93794°
Altitude448.242 km
Speed7.644 km/s
True Right ascension05h 29m 32s
True Declination-20° 23' 11"
Sunlit
Object was in full shadow at TLE epoch
Visualization TLE readout
Latitude31.22054°
Longitude38.88173°
Altitude445.818 km
Speed7.649 km/s
Apparent Right ascension13h 15m 15s
Apparent Declination-13° 55' 09"
Sunlit
Object is in full shadow
Visualization observer readout
Local Sidereal Time08:09:38
Azimuth109.327° ESE
Elevation1.182°
Doppler factor1
Orbital elements
Apogee altitude446.964 km
Perigee altitude444.846 km
Semi-major axis6,824.042 km
Eccentricity0.0001552
Inclination43.0002°
RAAN105.8886°
Arg. of periapsis255.7944°
True anomaly73.55376°
Mean anomaly73.5367°
Eccentric anomaly73.54523°
Mean motion3.85018 °/min
BSTAR-0.0020342
Orbital period93.5 mins
Loading maneuver chart data...
Loading historical data...
Loading historical data...
Loading historical data...
Loading historical data...
Loading historical data...
Loading historical data...
Loading historical data...

STARLINK-32753 Visibility forecast

Observer location: undefined°, undefined

Span
Click to sort rows by Start time (UTC) header in descending order
Start Az.
Max El. time (UTC)
Max El. Az.
Max El.
End time (UTC)
End Az.
6 mins2025-02-05 07:39:30.981Z207.577° SW2025-02-05 07:42:30.981Z148.192° SSE24.573°2025-02-05 07:45:30.981Z88.782° E
5 mins2025-02-05 09:18:30.981Z261.149° W2025-02-05 09:20:30.981Z12.219° NNE43.991°2025-02-05 09:23:30.981Z70.326° E
5 mins2025-02-05 10:56:30.981Z292.842° NW2025-02-05 10:58:30.981Z350.846° N36.988°2025-02-05 11:01:30.981Z75.843° E
5 mins2025-02-05 12:34:30.981Z287.24° WNW2025-02-05 12:36:30.981Z278.885° WNW42.792°2025-02-05 12:39:30.981Z111.458° ESE
|